Regional Weather Roundup
Issued by NWS

Home | Current Version | Previous Version | Text Only | Print | Product List | Glossary Off
Versions: 1 2 3 4 5 6 7 8 9 10 11 12 13 14 15 16 17 18 19 20 21 22 23 24 25 26 27 28 29 30 31 32 33 34 35 36 37 38 39 40 41 42 43 44 45 46 47 48 49 50

117
ASUS45 KBOU 061207
RWRCO

WEATHER ROUNDUP FOR COLORADO
NATIONAL WEATHER SERVICE DENVER/BOULDER CO
600 AM MDT FRI MAY 06 2016

NOTE: "FAIR" INDICATES FEW OR NO CLOUDS BELOW 12000 FEET WITH NO
SIGNIFICANT WEATHER AND/OR OBSTRUCTIONS TO VISIBILITY.

COZ001>005-013-030-031-061300-
...NORTHWEST COLORADO...

CITY           SKY/WX    TMP DP  RH WIND       PRES   REMARKS
CRAIG          MOCLDY    44  36  73 VRB5      30.05R
HAYDEN         MOCLDY    48  30  49 S3        30.06R
MEEKER         MOCLDY    50  33  52 N7        30.03F
MOUNT WERNER   NOT AVBL
STEAMBOAT SPGS FAIR      45  32  60 CALM      30.06S
WALDEN         FAIR      36  30  80 CALM      30.14S
$$

COZ006>008-011-061300-
...WEST CENTRAL VALLEYS...

CITY           SKY/WX    TMP DP  RH WIND       PRES   REMARKS
GRAND JUNCTION FAIR      64  36  35 E14       29.85F
MONTROSE       MOCLDY    61  33  35 SE9       29.97R
EAGLE          MOCLDY    45  30  57 E9        30.08F
RIFLE          CLOUDY    57  39  51 S7        29.98R
DELTA          NOT AVBL
NUCLA          NOT AVBL
$$

COZ017>023-064>068-061300-
...SOUTHWEST COLORADO...

CITY           SKY/WX    TMP DP  RH WIND       PRES   REMARKS
DURANGO        MOCLDY    52  34  50 E9        30.02R
CORTEZ         FAIR      64  29  26 SE17G24   29.94R
PAGOSA SPRINGS CLOUDY    53  28  37 N6        30.12R
TELLURIDE      LGT RAIN  44  38  79 SE13G20   30.18R
WOLF CREEK PAS CLOUDY    36  25  64 SW17G24   30.35R
$$

COZ009-010-012-014-032>034-037-058>063-061300-
...CENTRAL COLORADO...

CITY           SKY/WX    TMP DP  RH WIND       PRES   REMARKS
ASPEN          FAIR      43  28  55 SW8       30.09S
BUENA VISTA    FAIR      37  31  79 NW6       30.17S
COPPER MTN     NOT AVBL
BERTHOUD PASS  FAIR      36  27  69 SE5       30.38S
COTTONWOOD PAS CLOUDY    46  23  39 CALM      30.25S
GUNNISON       FAIR      43  28  56 CALM      30.15S
KREMMLING      FAIR      37  32  81 CALM      30.12S
LEADVILLE      FAIR      35  25  66 SE5       30.24S WCI  31
MONARCH PASS   FAIR      37  21  52 S9        30.45F
SALIDA         FAIR      43  32  64 NW6       30.23R
SUNLIGHT       FAIR      43  27  52 CALM      30.27F
WILKERSON PASS FAIR      37  23  56 SW6       30.33F
$$

COZ069>075-061300-
...SAN LUIS VALLEY/SANGRE DE CRISTO MOUNTAINS...

CITY           SKY/WX    TMP DP  RH WIND       PRES   REMARKS
ALAMOSA        FAIR      41  32  70 E7        30.13S
LA VETA PASS   FAIR      43  23  45 S9        30.27S
SAGUACHE       CLOUDY    41  32  70 NW8       30.17S
$$

COZ035-036-038>040-061300-
...NORTHERN COLORADO FRONT RANGE...

CITY           SKY/WX    TMP DP  RH WIND       PRES   REMARKS
DENVER INTL AP MOCLDY    54  39  57 SW13      29.98R
DMNS CITY PARK   N/A     52  38  59 N5        29.98S
AURORA         FAIR      53  38  57 SW7       30.00R
FRONT RANGE AP NOT AVBL
ERIE MUNI ARPT FAIR      46  41  83 CALM      29.97S
BOULDER MUN AP FAIR      52  36  54 CALM      29.97S
CENTENNIAL     MOCLDY    50  38  63 S5        30.00S
BROOMFIELD     FAIR      55  34  44 CALM      30.00R
FORT COLLINS   FAIR      48  41  76 N6        29.98R
LONGMONT       FAIR      46  40  78 CALM      29.99R
$$

COZ041-046-047-076>085-087-088-061300-
...PIKES PEAK/PALMER DIVIDE AND SOUTHERN FOOTHILLS...

CITY           SKY/WX    TMP DP  RH WIND       PRES   REMARKS
COLO. SPRINGS  FAIR      44  36  73 N7        30.05S
A. F. ACADEMY  CLEAR     41  37  87 N8        30.05F
SCHRIEVER AFB  NOT AVBL
ELLICOTT       FAIR     N/A N/A N/A CALM      30.03S
FALCON         NOT AVBL
FORT CARSON    FAIR      45  38  75 NW8       30.02S
LIMON          FAIR      39  39 100 CALM      30.02R
MONUMENT HILL  FAIR      48  32  53 SW8       30.08F
TRINIDAD       FAIR      63  22  20 SW24G35   30.03R
$$

COZ042>045-048>051-090-091-061300-
...NORTHEAST COLORADO...

CITY           SKY/WX    TMP DP  RH WIND       PRES   REMARKS
GREELEY ARPT   FAIR      46  43  87 N5        29.96S
AKRON          FAIR      45  42  89 S6        29.98R
BURLINGTON     FAIR      50  44  80 S16       29.99S
WRAY           NOT AVBL
STERLING       FAIR      50  45  81 SE5       29.95S
HOLYOKE        NOT AVBL
FORT MORGAN    FAIR      47  42  83 NE6       29.97R
$$

COZ086-089-092>099-061300-
...SOUTHEAST COLORADO...

CITY           SKY/WX    TMP DP  RH WIND       PRES   REMARKS
PUEBLO         FAIR      48  41  76 CALM      29.99S
LA JUNTA       FAIR      49  42  77 CALM      29.98R
LAMAR          FAIR      46  44  93 E8        29.96R
SPRINGFIELD      N/A     55  32  41 SW16      30.01R
$$




USA.gov is the U.S. government's official web portal to all federal, state and local government web resources and services.